Voltar ao catálogo

STARLINK-33686

AtivoComunicaçõesVLEO
NORAD 63422·PAYLOAD·🇺🇸 United States

Lançado Mar 31, 2025 de Cape Canaveral Space Force Station

Loading…

Próximas Passagens (próximas 24 horas)

TLE

AtualizadoSource: CelesTrak SupGP

Época: Sep 14, 2026, 20:33 UTC

1 63422C 25065Z   26257.85673611 -.00037391  00000+0 -13547-2 0  2577
2 63422  43.0013 118.7932 0001741 269.8342 302.4010 15.27586645    18

Acompanhe STARLINK-33686 em tempo real com AllMySat

Download on the App Store